Tracking 30995 objects as of 5-Jul-2025
HD Live streaming from Space Station
objects crossing your sky now

BREEZE-M R/B

Track BREEZE-M R/B now!


NORAD ID: 43433
Int'l Code: 2018-037B
Perigee: 35,668.1 km
Apogee: 41,876.1 km
Inclination: 7.2 °
Period: 1,590.9 minutes
Semi major axis: 45143 km
RCS: Unknown
Launch date: April 18, 2018
Source: Commonwealth of Independent States (former USSR) (CIS)
Launch site: TYURATAM MISSILE AND SPACE COMPLEX (TTMTR)

Note: This is a ROCKET BODY
Your satellite tracking list
FENGYUN 1C DEB
Track 1 satellite(s)




NASA's NSSDC Master Catalog

Two Line Element Set (TLE):
1 43433U 18037B   25185.18795669 -.00000136  00000-0  00000-0 0  9999
2 43433   7.1551  74.9838 0687588  20.0409 342.4419  0.90514077 24055
Source of the keplerian elements: AFSPC